Regional Weather Roundup
Issued by NWS New Orleans/Baton Rouge, LA

Home | Current Version | Previous Version | Text Only | Print | Product List | Glossary On
Versions: 1 2 3 4 5 6 7 8 9 10 11 12 13 14 15 16 17 18 19 20 21 22 23 24 25 26 27 28 29 30 31 32 33 34 35 36 37 38 39 40 41 42 43 44 45 46 47 48 49 50
000
ASUS44 KLIX 240913
RWRLIX
NEW ORLEANS REGIONAL WEATHER ROUNDUP
NATIONAL WEATHER SERVICE NEW ORLEANS LA
400 AM CDT THU AUG 24 2017

NOTE: "FAIR" INDICATES FEW OR NO CLOUDS BELOW 12,000 FEET WITH NO
      SIGNIFICANT WEATHER AND/OR OBSTRUCTIONS TO VISIBILITY.
      SKY/WX - SKY CONDITION AND SIGNIFICANT WEATHER.
      TMP - AIR TEMPERATURE.     DP    - DEWPOINT TEMPERATURE.
      RH  - RELATIVE HUMIDITY.   PRES  - PRESSURE.
      HI  - HEAT INDEX.          WCI   - WIND CHILL INDEX.

*  THESE STATIONS ARE NOT NWS OR FAA STATIONS AND ARE NOT UNDER
   NWS QUALITY CONTROL.

LAZ038-040-048-061>063-065>067-069-241000-
SOUTHEAST LOUISIANA

CITY           SKY/WX    TMP DP  RH WIND       PRES   REMARKS
N.O. INTL ARPT CLOUDY    83  77  82 NE5       29.87S
N.O. LAKEFRONT CLOUDY    84  76  76 NE7       29.88R
N.O. DOWNTOWN* PTSUNNY   82  76  81 NE5       29.88S
RESERVE*         N/A     80  76  88 CALM      29.88S
SLIDELL        PTCLDY    75  72  90 N3        29.87S
BATON ROUGE    MOCLDY    76  73  91 N5        29.87F
BOOTHVILLE     CLOUDY    83  79  88 CALM      29.87R
BELLE CHASSE   NOT AVBL
BOGALUSA*        N/A     75  71  87 CALM      29.90F
GALLIANO*      MOSUNNY   78  75  91 CALM      29.87S
NEW ROADS*       N/A     75  73  92 CALM      29.88F
GONZALES*        N/A     78  76  95 CALM      29.87S
HAMMOND*       CLOUDY    77  72  83 CALM      29.88S
HOUMA*         NOT AVBL
PORT FOURCHON* MOSUNNY   84  77  79 N8        29.86F

$$

MSZ070-080>082-241000-
SOUTHERN MISSISSIPPI

CITY           SKY/WX    TMP DP  RH WIND       PRES   REMARKS
MCCOMB         PTCLDY    73  71  93 N5        29.90S
GULFPORT       CLOUDY    77  73  87 CALM      29.87F
BILOXI         MOCLDY    76  73  91 NE7       29.87F
PASCAGOULA     LGT RAIN  74  72  93 CALM      29.88F

$$

COASTAL OBSERVATIONS
LAKE AND NEARSHORE STATIONS

STATION/POSITION TIME  TEMP    WIND        PRES    WAVE
                       AIR SEA DIR/SP/G            HT/PER
                 (UTC) (F)     (DEG/KT/KT) (MB)    (FT/S)
PASCAGOULA       0848   77      30/  2/  4 1011.2
WAVELAND YACHT   0848   79 86   40/  9/ 11 1011.7
GRAND ISLE       0848   81 89  100/  7/ 10 1011.6
SOUTHWEST PASS   0848   86      40/  5/  6   N/A
NEW CANAL        0848   83 88   40/  6/  7 1011.5
SHELL BEACH      0848   83 89   30/  8/  9 1011.6

OFFSHORE STATIONS

STATION/POSITION TIME  TEMP    WIND        PRES    WAVE
                       AIR SEA DIR/SP/G            HT/PER
                 (UTC) (F)     (DEG/KT/KT) (MB)    (FT/S)
64 S DAUPHIN ISL 0850   84 87   CALM  /  2 1011.0    1/ 6

$$




USA.gov is the U.S. government's official web portal to all federal, state and local government web resources and services.